• In Russia
  • List of Countries
  • For 7 days
  • Water Temperature
  • Satellite Maps
  • Weather Map
  • Weather Widgets
  • user-avatar
    Login

    Hourly Weather Saidpur

    Today, 20 February, Wednesday

    Time Temperature Precipitation Wind Pressure Humidity
    00:00 +21°C° 0 mm 2 mps 758 mmHg 56%
    01:00 +21°C° 0 mm 2 mps 758 mmHg 60%
    02:00 +20°C° 0 mm 2 mps 758 mmHg 64%
    03:00 +20°C° 0 mm 2 mps 759 mmHg 68%
    04:00 +19°C° 0 mm 2 mps 759 mmHg 71%
    05:00 +19°C° 0 mm 2 mps 759 mmHg 73%
    06:00 +19°C° 0 mm 2 mps 759 mmHg 73%
    07:00 +20°C° 0 mm 2 mps 759 mmHg 69%
    08:00 +21°C° 0 mm 2 mps 759 mmHg 64%
    09:00 +23°C° 0 mm 2 mps 760 mmHg 60%
    10:00 +25°C° 0 mm 2 mps 760 mmHg 52%
    11:00 +27°C° 0 mm 2 mps 760 mmHg 45%
    12:00 +29°C° 0 mm 2 mps 760 mmHg 38%
    13:00 +29°C° 0 mm 3 mps 759 mmHg 34%
    14:00 +30°C° 0 mm 4 mps 759 mmHg 30%
    15:00 +32°C° 0 mm 5 mps 758 mmHg 27%
    16:00 +30°C° 0 mm 4 mps 758 mmHg 30%
    17:00 +29°C° 0 mm 3 mps 758 mmHg 32%
    18:00 +28°C° 0 mm 3 mps 758 mmHg 35%
    19:00 +27°C° 0 mm 2 mps 758 mmHg 38%
    20:00 +26°C° 0 mm 2 mps 759 mmHg 40%
    21:00 +25°C° 0 mm 2 mps 760 mmHg 43%
    22:00 +25°C° 0 mm 2 mps 760 mmHg 46%
    23:00 +24°C° 0 mm 2 mps 760 mmHg 50%

    Tomorrow, 21 February, Thursday

    Time Temperature Precipitation Wind Pressure Humidity
    00:00 +23°C° 0 mm 2 mps 760 mmHg 53%
    01:00 +23°C° 0 mm 2 mps 760 mmHg 58%
    02:00 +21°C° 0 mm 2 mps 760 mmHg 63%
    03:00 +20°C° 0 mm 2 mps 760 mmHg 68%
    04:00 +20°C° 0 mm 2 mps 760 mmHg 71%
    05:00 +19°C° 0 mm 3 mps 760 mmHg 74%
    06:00 +19°C° 0 mm 3 mps 760 mmHg 77%
    07:00 +20°C° 0 mm 3 mps 760 mmHg 72%
    08:00 +21°C° 0 mm 3 mps 761 mmHg 68%
    09:00 +22°C° 0 mm 3 mps 761 mmHg 63%
    10:00 +24°C° 0 mm 3 mps 761 mmHg 57%
    11:00 +26°C° 0 mm 2 mps 761 mmHg 50%
    12:00 +28°C° 0 mm 1 mps 760 mmHg 43%
    13:00 +29°C° 0 mm 2 mps 760 mmHg 40%
    14:00 +30°C° 0 mm 2 mps 759 mmHg 37%
    15:00 +30°C° 0 mm 2 mps 758 mmHg 34%
    16:00 +30°C° 0 mm 2 mps 757 mmHg 36%
    17:00 +29°C° 0 mm 2 mps 757 mmHg 39%
    18:00 +28°C° 0 mm 2 mps 757 mmHg 41%
    19:00 +27°C° 0 mm 2 mps 758 mmHg 43%
    20:00 +27°C° 0 mm 1 mps 758 mmHg 45%
    21:00 +26°C° 0 mm 1 mps 759 mmHg 47%
    22:00 +25°C° 0 mm 1 mps 758 mmHg 48%
    23:00 +25°C° 0 mm 1 mps 758 mmHg 49%

    Day after tomorrow, 22 February, Friday

    Time Temperature Precipitation Wind Pressure Humidity
    00:00 +24°C° 0 mm 1 mps 758 mmHg 50%
    01:00 +24°C° 0 mm 1 mps 757 mmHg 53%
    02:00 +23°C° 0 mm 1 mps 757 mmHg 55%
    03:00 +23°C° 0 mm 2 mps 757 mmHg 57%
    04:00 +21°C° 0 mm 2 mps 757 mmHg 60%
    05:00 +21°C° 0 mm 2 mps 757 mmHg 62%
    06:00 +20°C° 0 mm 2 mps 757 mmHg 64%
    07:00 +23°C° 0 mm 2 mps 757 mmHg 60%
    08:00 +24°C° 0 mm 2 mps 758 mmHg 56%
    09:00 +25°C° 0 mm 2 mps 759 mmHg 52%
    10:00 +27°C° 0 mm 1 mps 758 mmHg 48%
    11:00 +29°C° 0 mm 1 mps 758 mmHg 43%
    12:00 +28°C° 0 mm 0 mps 758 mmHg 38%
    13:00 +31°C° 0 mm 2 mps 756 mmHg 34%
    14:00 +33°C° 0 mm 3 mps 755 mmHg 31%
    15:00 +35°C° 0 mm 4 mps 754 mmHg 28%
    16:00 +34°C° 0 mm 4 mps 754 mmHg 30%
    17:00 +33°C° 0 mm 3 mps 754 mmHg 32%
    18:00 +31°C° 0 mm 3 mps 754 mmHg 35%
    19:00 +30°C° 0 mm 3 mps 754 mmHg 37%
    20:00 +29°C° 0 mm 3 mps 755 mmHg 39%
    21:00 +28°C° 0 mm 3 mps 755 mmHg 41%
    22:00 +27°C° 0 mm 3 mps 755 mmHg 44%
    23:00 +26°C° 0 mm 3 mps 755 mmHg 46%

    23 February, Saturday

    Time Temperature Precipitation Wind Pressure Humidity
    00:00 +26°C° 0 mm 3 mps 755 mmHg 48%
    01:00 +25°C° 0 mm 2 mps 755 mmHg 50%
    02:00 +24°C° 0 mm 2 mps 754 mmHg 52%
    03:00 +24°C° 0 mm 2 mps 754 mmHg 54%
    04:00 +23°C° 0 mm 2 mps 754 mmHg 56%
    05:00 +23°C° 0 mm 2 mps 754 mmHg 58%
    06:00 +22°C° 0 mm 1 mps 754 mmHg 61%
    07:00 +23°C° 0 mm 2 mps 755 mmHg 58%
    08:00 +25°C° 0 mm 2 mps 755 mmHg 55%
    09:00 +26°C° 0 mm 2 mps 756 mmHg 52%
    10:00 +28°C° 0 mm 3 mps 756 mmHg 45%
    11:00 +30°C° 0 mm 3 mps 755 mmHg 38%
    12:00 +32°C° 0 mm 4 mps 755 mmHg 32%
    13:00 +33°C° 0 mm 5 mps 754 mmHg 29%
    14:00 +34°C° 0 mm 6 mps 753 mmHg 27%
    15:00 +35°C° 0 mm 7 mps 752 mmHg 25%
    16:00 +34°C° 0 mm 6 mps 752 mmHg 28%
    17:00 +33°C° 0 mm 5 mps 752 mmHg 30%
    18:00 +32°C° 0 mm 4 mps 752 mmHg 33%
    19:00 +29°C° 0 mm 4 mps 753 mmHg 35%
    20:00 +28°C° 0 mm 4 mps 753 mmHg 37%
    21:00 +27°C° 0 mm 4 mps 754 mmHg 39%
    22:00 +26°C° 0 mm 3 mps 754 mmHg 40%
    23:00 +26°C° 0 mm 3 mps 754 mmHg 40%

    24 February, Sunday

    Time Temperature Precipitation Wind Pressure Humidity
    00:00 +25°C° 0 mm 3 mps 754 mmHg 41%
    01:00 +24°C° 0 mm 3 mps 754 mmHg 42%
    02:00 +23°C° 0 mm 2 mps 754 mmHg 44%
    03:00 +23°C° 0 mm 2 mps 753 mmHg 45%
    04:00 +21°C° 0 mm 2 mps 754 mmHg 47%
    05:00 +21°C° 0 mm 2 mps 754 mmHg 48%
    06:00 +20°C° 0 mm 2 mps 754 mmHg 49%
    07:00 +23°C° 0 mm 2 mps 755 mmHg 46%
    08:00 +24°C° 0 mm 2 mps 755 mmHg 44%
    09:00 +25°C° 0 mm 2 mps 756 mmHg 41%
    10:00 +27°C° 0 mm 2 mps 756 mmHg 37%
    11:00 +28°C° 0 mm 2 mps 755 mmHg 33%
    12:00 +30°C° 0 mm 3 mps 755 mmHg 29%
    13:00 +30°C° 0 mm 3 mps 754 mmHg 28%
    14:00 +30°C° 0 mm 4 mps 754 mmHg 28%
    15:00 +32°C° 0 mm 5 mps 753 mmHg 27%
    16:00 +30°C° 0 mm 4 mps 753 mmHg 32%
    17:00 +28°C° 0 mm 3 mps 753 mmHg 37%
    18:00 +27°C° 0 mm 2 mps 753 mmHg 42%
    19:00 +26°C° 0 mm 2 mps 754 mmHg 45%
    20:00 +26°C° 0 mm 2 mps 754 mmHg 47%
    21:00 +25°C° 0 mm 2 mps 754 mmHg 50%
    22:00 +25°C° 0 mm 2 mps 755 mmHg 52%
    23:00 +24°C° 0 mm 2 mps 755 mmHg 54%

    25 February, Monday

    Time Temperature Precipitation Wind Pressure Humidity
    00:00 +24°C° 0 mm 2 mps 755 mmHg 56%
    01:00 +24°C° 0 mm 3 mps 754 mmHg 61%
    02:00 +22°C° 0 mm 3 mps 754 mmHg 66%
    03:00 +21°C° 0 mm 3 mps 754 mmHg 71%
    04:00 +21°C° 0.1 mm 2 mps 754 mmHg 73%
    05:00 +21°C° 0.1 mm 2 mps 755 mmHg 75%
    06:00 +22°C° 0.1 mm 1 mps 755 mmHg 77%
    07:00 +22°C° 0.1 mm 1 mps 756 mmHg 76%
    08:00 +23°C° 0.1 mm 1 mps 756 mmHg 74%
    09:00 +23°C° 0.1 mm 1 mps 756 mmHg 73%
    10:00 +23°C° 1.8 mm 2 mps 756 mmHg 70%
    11:00 +23°C° 1.8 mm 2 mps 756 mmHg 68%
    12:00 +22°C° 1.8 mm 3 mps 756 mmHg 66%
    13:00 +22°C° 0.7 mm 4 mps 755 mmHg 66%
    14:00 +22°C° 0.7 mm 4 mps 755 mmHg 67%
    15:00 +21°C° 0.7 mm 4 mps 754 mmHg 68%
    16:00 +21°C° 0 mm 4 mps 754 mmHg 69%
    17:00 +21°C° 0 mm 3 mps 754 mmHg 70%
    18:00 +20°C° 0 mm 2 mps 754 mmHg 70%
    19:00 +20°C° 0 mm 2 mps 755 mmHg 72%
    20:00 +20°C° 0 mm 2 mps 755 mmHg 75%
    21:00 +19°C° 0 mm 2 mps 756 mmHg 77%
    22:00 +19°C° 0 mm 2 mps 756 mmHg 77%
    23:00 +20°C° 0 mm 1 mps 756 mmHg 78%
    Show more